Location: Gaast
(52.9002°N, 5.8891°E)
Time: 00:23:49
(UTC+00:00)

COSMO-SKYMED 1 - Pass Details

Date: 18 November 2025
Orbit: 579 x 581 km, 97.9° (Epoch: 04 December)

Event Time Altitude Azimuth Distance (km) Brightness Sun altitude
Exits shadow 17:26:16 29° 96° (E) 1,079 3.2 -16.0°
Drops below altitude 10° 17:29:50 10° 156° (SSE) 1,893 4.9 -16.6°
Sets 17:32:12 0° 168° (SSE) 2,787 5.9 -16.9°
